Date,TemperatureHighF,TemperatureAvgF,TemperatureLowF,DewpointHighF,DewpointAvgF,DewpointLowF,HumidityHigh,HumidityAvg,HumidityLow,PressureMaxIn,PressureMinIn,WindSpeedMaxMPH,WindSpeedAvgMPH,GustSpeedMaxMPH,PrecipitationSumIn
2013-4-1,40.1,30.9,26.1,25.9,20.4,17.3,81,65,48,29.95,29.85,4,0,11,0.01
2013-4-2,35.2,28.1,26.6,24.3,20.6,19.7,77,73,63,29.96,29.92,4,0,8,0.00
2013-4-3,35.1,31.4,29.3,23.4,22.4,21.3,76,69,59,30.05,30.01,7,0,10,0.00
2013-4-4,35.8,31.7,29.1,25.4,24.2,22.9,80,74,63,30.03,29.92,3,0,6,0.00
2013-4-5,32.5,31.3,30.9,28.0,26.5,25.3,84,82,78,29.92,29.82,2,0,4,0.00
2013-4-6,39.2,34.4,31.6,31.2,28.5,26.7,87,79,67,30.19,29.93,2,0,3,0.00
2013-4-7,47.5,35.4,25.7,29.1,24.8,18.2,86,67,36,30.22,30.11,5,0,7,0.01
2013-4-8,54.1,36.5,20.5,28.2,21.1,16.9,86,58,27,30.11,29.80,7,0,10,0.00
2013-4-9,52.2,40.8,32.5,38.1,30.6,20.4,91,67,51,29.81,29.74,6,1,9,0.02
2013-4-10,54.0,44.5,33.8,43.0,38.1,31.2,97,79,54,29.92,29.74,12,4,17,0.05
2013-4-11,46.8,42.7,37.8,41.6,37.4,34.2,89,82,76,29.92,29.81,6,1,8,0.02
2013-4-12,57.4,50.6,39.6,49.2,44.0,37.6,95,79,52,29.88,29.64,16,4,26,0.20
2013-4-13,60.8,49.2,37.4,41.0,37.8,32.2,95,67,34,30.32,29.89,12,4,19,0.02
2013-4-14,52.7,41.6,37.6,40.5,37.0,34.6,97,84,63,30.41,30.33,2,0,4,0.00
2013-4-15,76.8,56.7,36.3,47.5,40.7,35.6,99,61,27,30.39,30.22,5,1,11,0.00
2013-4-16,74.1,58.8,42.3,52.9,44.2,36.3,99,62,34,30.26,30.19,4,0,7,0.02
2013-4-17,51.8,49.6,48.0,51.3,49.3,47.8,99,99,98,30.29,30.25,0,0,0,0.00
2013-4-22,71.2,54.7,40.6,53.7,47.5,40.4,99,79,51,30.12,30.02,7,1,10,0.00
2013-4-23,68.9,56.7,43.7,49.6,44.0,38.1,99,67,37,30.31,30.12,14,2,25,0.00
2013-4-24,75.9,58.9,41.2,46.7,42.7,38.2,92,59,32,30.41,30.30,9,2,14,0.00
2013-4-25,81.0,63.6,49.5,52.8,47.6,45.4,88,60,31,30.37,30.20,4,0,8,0.00
2013-4-26,80.8,65.1,45.5,52.8,47.7,42.1,98,59,26,30.20,29.69,11,3,15,0.00
2013-4-27,63.3,53.8,45.9,53.6,49.6,45.1,97,86,61,29.83,29.70,6,1,10,0.00
2013-4-28,56.3,45.8,38.7,45.1,41.3,37.8,99,85,60,30.11,29.82,5,0,7,0.00
2013-4-29,50.5,43.6,38.3,47.4,42.9,38.0,99,98,89,30.10,30.06,1,0,5,0.01
2013-4-30,65.1,52.1,45.0,52.5,47.0,44.0,99,84,59,30.25,30.16,4,1,8,0.06